Time,TemperatureF,DewpointF,PressureIn,WindDirection,WindDirectionDegrees,WindSpeedMPH,WindSpeedGustMPH,Humidity,HourlyPrecipIn,Conditions,Clouds,dailyrainin,SoftwareType,DateUTC
2013-01-05 00:00:00,42.7,34.3,30.30,North,0,0.0,0.0,72,0.00,,,0.00,WUHU216HW,2013-01-05 05:00:00,
2013-01-05 00:03:00,42.3,33.9,30.30,North,0,0.0,0.0,72,0.00,,,0.00,WUHU216HW,2013-01-05 05:03:00,
2013-01-05 00:08:00,42.1,34.1,30.29,North,0,0.0,0.0,73,0.00,,,0.00,WUHU216HW,2013-01-05 05:08:00,
2013-01-05 00:13:00,41.9,33.9,30.29,North,0,0.0,0.0,73,0.00,,,0.00,WUHU216HW,2013-01-05 05:13:00,
2013-01-05 00:18:00,41.8,33.8,30.29,North,0,0.0,0.0,73,0.00,,,0.00,WUHU216HW,2013-01-05 05:18:00,
2013-01-05 00:23:00,41.6,33.8,30.29,North,0,0.0,0.0,74,0.00,,,0.00,WUHU216HW,2013-01-05 05:23:00,
2013-01-05 00:28:00,41.4,33.7,30.29,North,0,0.0,0.0,74,0.00,,,0.00,WUHU216HW,2013-01-05 05:28:00,
2013-01-05 00:33:00,41.0,33.3,30.29,North,0,0.0,0.0,74,0.00,,,0.00,WUHU216HW,2013-01-05 05:33:00,
2013-01-05 00:38:00,41.0,33.3,30.29,North,0,0.0,0.0,74,0.00,,,0.00,WUHU216HW,2013-01-05 05:38:00,
2013-01-05 00:43:00,40.9,33.1,30.29,North,0,0.0,0.0,74,0.00,,,0.00,WUHU216HW,2013-01-05 05:43:00,
2013-01-05 00:48:00,40.9,33.1,30.29,North,0,0.0,0.0,74,0.00,,,0.00,WUHU216HW,2013-01-05 05:48:00,
2013-01-05 00:53:00,40.9,33.5,30.29,North,0,0.0,0.0,75,0.00,,,0.00,WUHU216HW,2013-01-05 05:53:00,
2013-01-05 00:58:00,41.0,33.7,30.29,North,0,0.0,0.0,75,0.00,,,0.00,WUHU216HW,2013-01-05 05:58:00,
2013-01-05 01:03:00,41.0,33.7,30.29,North,0,0.0,0.0,75,0.00,,,0.00,WUHU216HW,2013-01-05 06:03:00,
2013-01-05 01:08:00,40.9,33.5,30.29,North,0,0.0,0.0,75,0.00,,,0.00,WUHU216HW,2013-01-05 06:08:00,
2013-01-05 01:13:00,40.7,33.3,30.29,North,0,0.0,0.0,75,0.00,,,0.00,WUHU216HW,2013-01-05 06:13:00,
2013-01-05 01:18:00,40.7,33.3,30.30,North,0,0.0,0.0,75,0.00,,,0.00,WUHU216HW,2013-01-05 06:18:00,
2013-01-05 01:23:00,40.9,33.5,30.30,North,0,0.0,0.0,75,0.00,,,0.00,WUHU216HW,2013-01-05 06:23:00,
2013-01-05 01:28:00,40.9,33.5,30.30,North,0,0.0,0.0,75,0.00,,,0.00,WUHU216HW,2013-01-05 06:28:00,
2013-01-05 01:33:00,40.9,33.5,30.30,North,0,0.0,0.0,75,0.00,,,0.00,WUHU216HW,2013-01-05 06:33:00,
2013-01-05 01:38:00,41.0,33.3,30.30,North,0,0.0,0.0,74,0.00,,,0.00,WUHU216HW,2013-01-05 06:38:00,
2013-01-05 01:43:00,41.0,33.3,30.30,North,0,0.0,0.0,74,0.00,,,0.00,WUHU216HW,2013-01-05 06:43:00,
2013-01-05 01:48:00,40.9,32.9,30.30,North,0,0.0,0.0,73,0.00,,,0.00,WUHU216HW,2013-01-05 06:48:00,
2013-01-05 01:53:00,40.7,32.7,30.30,North,0,0.0,0.0,73,0.00,,,0.00,WUHU216HW,2013-01-05 06:53:00,
2013-01-05 01:59:00,40.5,32.5,30.30,North,0,0.0,0.0,73,0.00,,,0.00,WUHU216HW,2013-01-05 06:59:00,
2013-01-05 02:04:00,40.5,32.1,30.31,North,0,0.0,0.0,72,0.00,,,0.00,WUHU216HW,2013-01-05 07:04:00,
2013-01-05 02:09:00,40.3,31.7,30.31,North,0,0.0,0.0,71,0.00,,,0.00,WUHU216HW,2013-01-05 07:09:00,
2013-01-05 02:14:00,40.1,31.5,30.31,North,0,0.0,0.0,71,0.00,,,0.00,WUHU216HW,2013-01-05 07:14:00,
2013-01-05 02:19:00,40.0,31.3,30.31,North,0,0.0,0.0,71,0.00,,,0.00,WUHU216HW,2013-01-05 07:19:00,
2013-01-05 02:24:00,39.8,31.2,30.31,North,0,0.0,0.0,71,0.00,,,0.00,WUHU216HW,2013-01-05 07:24:00,
2013-01-05 02:29:00,39.4,30.8,30.31,North,0,0.0,0.0,71,0.00,,,0.00,WUHU216HW,2013-01-05 07:29:00,
2013-01-05 02:34:00,39.2,31.0,30.31,North,0,0.0,0.0,72,0.00,,,0.00,WUHU216HW,2013-01-05 07:34:00,
2013-01-05 02:39:00,38.9,30.6,30.30,North,0,0.0,0.0,72,0.00,,,0.00,WUHU216HW,2013-01-05 07:39:00,
2013-01-05 02:44:00,38.5,30.2,30.31,North,0,0.0,0.0,72,0.00,,,0.00,WUHU216HW,2013-01-05 07:44:00,
2013-01-05 02:49:00,38.5,30.6,30.31,North,0,0.0,0.0,73,0.00,,,0.00,WUHU216HW,2013-01-05 07:49:00,
2013-01-05 02:54:00,38.2,30.2,30.31,North,0,0.0,0.0,73,0.00,,,0.00,WUHU216HW,2013-01-05 07:54:00,
2013-01-05 02:59:00,38.2,30.2,30.31,North,0,0.0,0.0,73,0.00,,,0.00,WUHU216HW,2013-01-05 07:59:00,
2013-01-05 03:05:00,38.2,30.2,30.31,North,0,0.0,0.0,73,0.00,,,0.00,WUHU216HW,2013-01-05 08:05:00,
2013-01-05 03:10:00,38.2,30.2,30.31,North,0,0.0,0.0,73,0.00,,,0.00,WUHU216HW,2013-01-05 08:10:00,
2013-01-05 03:15:00,38.2,30.2,30.31,North,0,0.0,0.0,73,0.00,,,0.00,WUHU216HW,2013-01-05 08:15:00,
2013-01-05 03:20:00,38.0,30.1,30.30,North,0,0.0,0.0,73,0.00,,,0.00,WUHU216HW,2013-01-05 08:20:00,
2013-01-05 03:25:00,37.8,30.0,30.31,North,0,0.0,0.0,73,0.00,,,0.00,WUHU216HW,2013-01-05 08:25:00,
2013-01-05 03:30:00,37.8,30.2,30.31,North,0,0.0,0.0,74,0.00,,,0.00,WUHU216HW,2013-01-05 08:30:00,
2013-01-05 03:35:00,37.6,30.1,30.31,North,0,0.0,0.0,74,0.00,,,0.00,WUHU216HW,2013-01-05 08:35:00,
2013-01-05 03:40:00,37.4,29.9,30.31,North,0,0.0,0.0,74,0.00,,,0.00,WUHU216HW,2013-01-05 08:40:00,
2013-01-05 03:45:00,37.4,29.9,30.31,North,0,0.0,0.0,74,0.00,,,0.00,WUHU216HW,2013-01-05 08:45:00,
2013-01-05 03:51:00,37.3,29.7,30.31,North,0,0.0,0.0,74,0.00,,,0.00,WUHU216HW,2013-01-05 08:51:00,
2013-01-05 03:56:00,37.1,29.5,30.31,North,0,0.0,0.0,74,0.00,,,0.00,WUHU216HW,2013-01-05 08:56:00,
2013-01-05 04:01:00,37.1,29.5,30.31,North,0,0.0,0.0,74,0.00,,,0.00,WUHU216HW,2013-01-05 09:01:00,
2013-01-05 04:06:00,36.7,29.2,30.31,North,0,0.0,0.0,74,0.00,,,0.00,WUHU216HW,2013-01-05 09:06:00,
2013-01-05 04:11:00,36.7,29.5,30.31,North,0,0.0,0.0,75,0.00,,,0.00,WUHU216HW,2013-01-05 09:11:00,
2013-01-05 04:16:00,36.5,29.3,30.31,North,0,0.0,0.0,75,0.00,,,0.00,WUHU216HW,2013-01-05 09:16:00,
2013-01-05 04:21:00,36.4,28.8,30.31,North,0,0.0,0.0,74,0.00,,,0.00,WUHU216HW,2013-01-05 09:21:00,
2013-01-05 04:27:00,36.2,28.6,30.32,North,0,0.0,0.0,74,0.00,,,0.00,WUHU216HW,2013-01-05 09:27:00,
2013-01-05 04:32:00,36.2,28.6,30.31,North,0,0.0,0.0,74,0.00,,,0.00,WUHU216HW,2013-01-05 09:32:00,
2013-01-05 04:37:00,36.0,28.8,30.31,North,0,0.0,0.0,75,0.00,,,0.00,WUHU216HW,2013-01-05 09:37:00,
2013-01-05 04:42:00,36.0,28.8,30.31,North,0,0.0,0.0,75,0.00,,,0.00,WUHU216HW,2013-01-05 09:42:00,
2013-01-05 04:47:00,35.8,28.6,30.31,North,0,0.0,0.0,75,0.00,,,0.00,WUHU216HW,2013-01-05 09:47:00,
2013-01-05 04:52:00,35.6,28.8,30.31,North,0,0.0,0.0,76,0.00,,,0.00,WUHU216HW,2013-01-05 09:52:00,
2013-01-05 04:57:00,35.6,28.8,30.32,North,0,0.0,0.0,76,0.00,,,0.00,WUHU216HW,2013-01-05 09:57:00,
2013-01-05 05:03:00,35.6,28.8,30.32,North,0,0.0,0.0,76,0.00,,,0.00,WUHU216HW,2013-01-05 10:03:00,
2013-01-05 05:08:00,35.6,28.8,30.32,North,0,0.0,0.0,76,0.00,,,0.00,WUHU216HW,2013-01-05 10:08:00,
2013-01-05 05:13:00,35.6,28.4,30.32,North,0,0.0,0.0,75,0.00,,,0.00,WUHU216HW,2013-01-05 10:13:00,
2013-01-05 05:18:00,35.6,28.4,30.33,North,0,0.0,0.0,75,0.00,,,0.00,WUHU216HW,2013-01-05 10:18:00,
2013-01-05 05:23:00,35.6,28.4,30.32,North,0,0.0,0.0,75,0.00,,,0.00,WUHU216HW,2013-01-05 10:23:00,
2013-01-05 05:28:00,35.6,28.4,30.33,North,0,0.0,0.0,75,0.00,,,0.00,WUHU216HW,2013-01-05 10:28:00,
2013-01-05 05:33:00,35.6,28.4,30.33,North,0,0.0,0.0,75,0.00,,,0.00,WUHU216HW,2013-01-05 10:33:00,
2013-01-05 05:38:00,35.5,28.3,30.33,North,0,0.0,0.0,75,0.00,,,0.00,WUHU216HW,2013-01-05 10:38:00,
2013-01-05 05:43:00,35.5,28.3,30.33,North,0,0.0,0.0,75,0.00,,,0.00,WUHU216HW,2013-01-05 10:43:00,
2013-01-05 05:48:00,35.6,28.4,30.33,North,0,0.0,0.0,75,0.00,,,0.00,WUHU216HW,2013-01-05 10:48:00,
2013-01-05 05:53:00,35.5,28.3,30.34,North,0,0.0,0.0,75,0.00,,,0.00,WUHU216HW,2013-01-05 10:53:00,
2013-01-05 05:59:00,35.3,28.1,30.34,North,0,0.0,0.0,75,0.00,,,0.00,WUHU216HW,2013-01-05 10:59:00,
2013-01-05 06:04:00,35.1,27.9,30.34,North,0,0.0,0.0,75,0.00,,,0.00,WUHU216HW,2013-01-05 11:04:00,
2013-01-05 06:09:00,34.9,28.1,30.34,North,0,0.0,0.0,76,0.00,,,0.00,WUHU216HW,2013-01-05 11:09:00,
2013-01-05 06:14:00,34.9,28.1,30.34,North,0,0.0,0.0,76,0.00,,,0.00,WUHU216HW,2013-01-05 11:14:00,
2013-01-05 06:19:00,34.9,28.1,30.35,North,0,0.0,0.0,76,0.00,,,0.00,WUHU216HW,2013-01-05 11:19:00,
2013-01-05 06:24:00,34.9,28.1,30.35,North,0,0.0,0.0,76,0.00,,,0.00,WUHU216HW,2013-01-05 11:24:00,
2013-01-05 06:29:00,34.9,28.1,30.35,North,0,0.0,0.0,76,0.00,,,0.00,WUHU216HW,2013-01-05 11:29:00,
2013-01-05 06:34:00,34.6,27.7,30.35,North,0,0.0,0.0,76,0.00,,,0.00,WUHU216HW,2013-01-05 11:34:00,
2013-01-05 06:39:00,34.6,27.7,30.35,North,0,0.0,0.0,76,0.00,,,0.00,WUHU216HW,2013-01-05 11:39:00,
2013-01-05 06:44:00,34.4,27.6,30.36,North,0,0.0,0.0,76,0.00,,,0.00,WUHU216HW,2013-01-05 11:44:00,
2013-01-05 06:49:00,34.2,27.4,30.36,North,0,0.0,0.0,76,0.00,,,0.00,WUHU216HW,2013-01-05 11:49:00,
2013-01-05 06:54:00,34.2,27.4,30.36,North,0,0.0,0.0,76,0.00,,,0.00,WUHU216HW,2013-01-05 11:54:00,
2013-01-05 06:59:00,34.0,27.2,30.36,North,0,0.0,0.0,76,0.00,,,0.00,WUHU216HW,2013-01-05 11:59:00,
2013-01-05 07:04:00,33.8,27.3,30.36,North,0,0.0,0.0,77,0.00,,,0.00,WUHU216HW,2013-01-05 12:04:00,
2013-01-05 07:09:00,34.0,27.5,30.36,North,0,0.0,0.0,77,0.00,,,0.00,WUHU216HW,2013-01-05 12:09:00,
2013-01-05 07:15:00,34.0,27.5,30.36,North,0,0.0,0.0,77,0.00,,,0.00,WUHU216HW,2013-01-05 12:15:00,
2013-01-05 07:20:00,34.0,27.5,30.36,North,0,0.0,0.0,77,0.00,,,0.00,WUHU216HW,2013-01-05 12:20:00,
2013-01-05 07:25:00,34.0,27.5,30.36,North,0,0.0,0.0,77,0.00,,,0.00,WUHU216HW,2013-01-05 12:25:00,
2013-01-05 07:30:00,34.0,27.5,30.36,North,0,0.0,0.0,77,0.00,,,0.00,WUHU216HW,2013-01-05 12:30:00,
2013-01-05 07:35:00,34.2,27.6,30.36,North,0,0.0,0.0,77,0.00,,,0.00,WUHU216HW,2013-01-05 12:35:00,
2013-01-05 07:40:00,34.2,27.6,30.37,North,0,0.0,0.0,77,0.00,,,0.00,WUHU216HW,2013-01-05 12:40:00,
2013-01-05 07:45:00,34.6,27.7,30.37,North,0,0.0,0.0,76,0.00,,,0.00,WUHU216HW,2013-01-05 12:45:00,
2013-01-05 07:50:00,34.7,27.9,30.37,North,0,0.0,0.0,76,0.00,,,0.00,WUHU216HW,2013-01-05 12:50:00,
2013-01-05 07:55:00,34.9,28.1,30.37,North,0,0.0,0.0,76,0.00,,,0.00,WUHU216HW,2013-01-05 12:55:00,
2013-01-05 08:00:00,35.1,27.9,30.38,North,0,0.0,0.0,75,0.00,,,0.00,WUHU216HW,2013-01-05 13:00:00,
2013-01-05 08:05:00,35.6,28.4,30.39,North,0,0.0,0.0,75,0.00,,,0.00,WUHU216HW,2013-01-05 13:05:00,
2013-01-05 08:10:00,36.0,28.8,30.39,North,0,0.0,0.0,75,0.00,,,0.00,WUHU216HW,2013-01-05 13:10:00,
2013-01-05 08:16:00,36.0,28.4,30.39,North,0,0.0,0.0,74,0.00,,,0.00,WUHU216HW,2013-01-05 13:16:00,
2013-01-05 08:21:00,36.4,28.8,30.39,North,0,0.0,0.0,74,0.00,,,0.00,WUHU216HW,2013-01-05 13:21:00,
2013-01-05 08:26:00,36.7,28.9,30.39,North,0,0.0,0.0,73,0.00,,,0.00,WUHU216HW,2013-01-05 13:26:00,
2013-01-05 08:31:00,37.1,28.9,30.39,North,0,0.0,0.0,72,0.00,,,0.00,WUHU216HW,2013-01-05 13:31:00,
2013-01-05 08:36:00,37.4,29.0,30.39,North,0,0.0,0.0,71,0.00,,,0.00,WUHU216HW,2013-01-05 13:36:00,
2013-01-05 08:41:00,37.8,29.3,30.39,North,0,0.0,0.0,71,0.00,,,0.00,WUHU216HW,2013-01-05 13:41:00,
2013-01-05 08:46:00,38.2,28.5,30.39,North,0,0.0,0.0,68,0.00,,,0.00,WUHU216HW,2013-01-05 13:46:00,
2013-01-05 08:51:00,38.3,28.7,30.39,North,0,0.0,0.0,68,0.00,,,0.00,WUHU216HW,2013-01-05 13:51:00,
2013-01-05 08:56:00,38.5,28.1,30.39,North,0,0.0,0.0,66,0.00,,,0.00,WUHU216HW,2013-01-05 13:56:00,
2013-01-05 09:01:00,38.9,28.0,30.39,North,0,0.0,0.0,65,0.00,,,0.00,WUHU216HW,2013-01-05 14:01:00,
2013-01-05 09:06:00,39.2,28.4,30.40,North,0,0.0,0.0,65,0.00,,,0.00,WUHU216HW,2013-01-05 14:06:00,
2013-01-05 09:11:00,39.6,28.0,30.39,North,0,0.0,0.0,63,0.00,,,0.00,WUHU216HW,2013-01-05 14:11:00,
2013-01-05 09:16:00,40.0,27.9,30.39,North,0,0.0,0.0,62,0.00,,,0.00,WUHU216HW,2013-01-05 14:16:00,
2013-01-05 09:21:00,40.5,28.9,30.39,North,0,0.0,0.0,63,0.00,,,0.00,WUHU216HW,2013-01-05 14:21:00,
2013-01-05 09:26:00,40.7,27.0,30.39,North,0,0.0,0.0,58,0.00,,,0.00,WUHU216HW,2013-01-05 14:26:00,
2013-01-05 09:31:00,41.0,27.4,30.39,North,0,0.0,0.0,58,0.00,,,0.00,WUHU216HW,2013-01-05 14:31:00,
2013-01-05 09:36:00,41.4,27.7,30.39,North,0,0.0,0.0,58,0.00,,,0.00,WUHU216HW,2013-01-05 14:36:00,
2013-01-05 09:41:00,41.8,28.0,30.39,North,0,0.0,0.0,58,0.00,,,0.00,WUHU216HW,2013-01-05 14:41:00,
2013-01-05 09:46:00,42.1,28.8,30.39,North,0,0.0,0.0,59,0.00,,,0.00,WUHU216HW,2013-01-05 14:46:00,
2013-01-05 09:51:00,42.5,28.3,30.39,North,0,0.0,0.0,57,0.00,,,0.00,WUHU216HW,2013-01-05 14:51:00,
2013-01-05 09:56:00,42.7,28.5,30.40,North,0,0.0,0.0,57,0.00,,,0.00,WUHU216HW,2013-01-05 14:56:00,
2013-01-05 10:01:00,43.2,28.9,30.40,North,0,0.0,0.0,57,0.00,,,0.00,WUHU216HW,2013-01-05 15:01:00,
2013-01-05 10:06:00,43.6,29.7,30.39,North,0,0.0,0.0,58,0.00,,,0.00,WUHU216HW,2013-01-05 15:06:00,
2013-01-05 10:11:00,43.9,29.2,30.39,North,0,0.0,0.0,56,0.00,,,0.00,WUHU216HW,2013-01-05 15:11:00,
2013-01-05 10:16:00,44.1,29.8,30.39,North,0,0.0,0.0,57,0.00,,,0.00,WUHU216HW,2013-01-05 15:16:00,
2013-01-05 10:21:00,44.3,29.1,30.39,North,0,0.0,0.0,55,0.00,,,0.00,WUHU216HW,2013-01-05 15:21:00,
2013-01-05 10:26:00,44.6,29.4,30.39,North,0,0.0,0.0,55,0.00,,,0.00,WUHU216HW,2013-01-05 15:26:00,
2013-01-05 10:31:00,45.0,30.7,30.39,North,0,0.0,0.0,57,0.00,,,0.00,WUHU216HW,2013-01-05 15:31:00,
2013-01-05 10:36:00,45.2,29.9,30.39,North,0,0.0,0.0,55,0.00,,,0.00,WUHU216HW,2013-01-05 15:36:00,
2013-01-05 10:41:00,45.5,29.8,30.39,North,0,0.0,0.0,54,0.00,,,0.00,WUHU216HW,2013-01-05 15:41:00,
2013-01-05 10:46:00,45.7,30.0,30.39,North,0,0.0,0.0,54,0.00,,,0.00,WUHU216HW,2013-01-05 15:46:00,
2013-01-05 10:51:00,46.3,30.0,30.39,North,0,0.0,0.0,53,0.00,,,0.00,WUHU216HW,2013-01-05 15:51:00,
2013-01-05 10:56:00,46.6,29.4,30.39,North,0,0.0,0.0,51,0.00,,,0.00,WUHU216HW,2013-01-05 15:56:00,
2013-01-05 11:02:00,46.1,29.3,30.39,North,0,0.0,0.0,52,0.00,,,0.00,WUHU216HW,2013-01-05 16:02:00,
2013-01-05 11:07:00,46.1,29.8,30.39,North,0,0.0,0.0,53,0.00,,,0.00,WUHU216HW,2013-01-05 16:07:00,
2013-01-05 11:12:00,46.4,29.7,30.39,North,0,0.0,0.0,52,0.00,,,0.00,WUHU216HW,2013-01-05 16:12:00,
2013-01-05 11:17:00,46.1,29.8,30.39,North,0,0.0,0.0,53,0.00,,,0.00,WUHU216HW,2013-01-05 16:17:00,
2013-01-05 11:22:00,46.1,29.8,30.39,North,0,0.0,0.0,53,0.00,,,0.00,WUHU216HW,2013-01-05 16:22:00,
2013-01-05 11:27:00,46.4,29.3,30.39,North,0,0.0,0.0,51,0.00,,,0.00,WUHU216HW,2013-01-05 16:27:00,
2013-01-05 11:32:00,46.8,29.6,30.39,North,0,0.0,0.0,51,0.00,,,0.00,WUHU216HW,2013-01-05 16:32:00,
2013-01-05 11:37:00,47.5,31.6,30.39,North,0,0.0,0.0,54,0.00,,,0.00,WUHU216HW,2013-01-05 16:37:00,
2013-01-05 11:42:00,47.9,32.4,30.39,North,0,0.0,0.0,55,0.00,,,0.00,WUHU216HW,2013-01-05 16:42:00,
2013-01-05 11:47:00,48.4,33.4,30.38,North,0,0.0,0.0,56,0.00,,,0.00,WUHU216HW,2013-01-05 16:47:00,
2013-01-05 11:52:00,48.4,33.0,30.38,North,0,0.0,0.0,55,0.00,,,0.00,WUHU216HW,2013-01-05 16:52:00,
2013-01-05 11:57:00,48.6,33.6,30.38,North,0,0.0,0.0,56,0.00,,,0.00,WUHU216HW,2013-01-05 16:57:00,
2013-01-05 12:02:00,49.3,34.8,30.37,North,0,0.0,0.0,57,0.00,,,0.00,WUHU216HW,2013-01-05 17:02:00,
2013-01-05 12:07:00,50.0,35.4,30.37,North,0,0.0,0.0,57,0.00,,,0.00,WUHU216HW,2013-01-05 17:07:00,
2013-01-05 12:12:00,50.4,35.3,30.37,North,0,0.0,0.0,56,0.00,,,0.00,WUHU216HW,2013-01-05 17:12:00,
2013-01-05 12:17:00,50.9,35.7,30.36,North,0,0.0,0.0,56,0.00,,,0.00,WUHU216HW,2013-01-05 17:17:00,
2013-01-05 12:22:00,51.5,36.2,30.36,North,0,0.0,0.0,56,0.00,,,0.00,WUHU216HW,2013-01-05 17:22:00,
2013-01-05 12:27:00,51.5,35.7,30.36,North,0,0.0,0.0,55,0.00,,,0.00,WUHU216HW,2013-01-05 17:27:00,
2013-01-05 12:32:00,51.7,35.9,30.36,North,0,0.0,0.0,55,0.00,,,0.00,WUHU216HW,2013-01-05 17:32:00,
2013-01-05 12:37:00,51.8,35.2,30.35,North,0,0.0,0.0,53,0.00,,,0.00,WUHU216HW,2013-01-05 17:37:00,
2013-01-05 12:43:00,52.2,35.6,30.35,North,0,0.0,0.0,53,0.00,,,0.00,WUHU216HW,2013-01-05 17:43:00,
2013-01-05 12:48:00,52.2,34.7,30.35,North,0,0.0,0.0,51,0.00,,,0.00,WUHU216HW,2013-01-05 17:48:00,
2013-01-05 12:53:00,51.8,34.7,30.34,North,0,0.0,0.0,52,0.00,,,0.00,WUHU216HW,2013-01-05 17:53:00,
2013-01-05 12:58:00,51.5,34.4,30.34,North,0,0.0,0.0,52,0.00,,,0.00,WUHU216HW,2013-01-05 17:58:00,
2013-01-05 13:03:00,51.3,33.9,30.34,North,0,0.0,0.0,51,0.00,,,0.00,WUHU216HW,2013-01-05 18:03:00,
2013-01-05 13:21:00,52.2,35.6,30.34,North,0,0.0,0.0,53,0.00,,,0.00,WUHU216HW,2013-01-05 18:21:00,
2013-01-05 13:26:00,52.2,35.6,30.33,North,0,0.0,0.0,53,0.00,,,0.00,WUHU216HW,2013-01-05 18:26:00,
2013-01-05 13:31:00,52.6,35.4,30.33,North,0,0.0,0.0,52,0.00,,,0.00,WUHU216HW,2013-01-05 18:31:00,
2013-01-05 13:36:00,52.2,35.1,30.33,North,0,0.0,0.0,52,0.00,,,0.00,WUHU216HW,2013-01-05 18:36:00,
2013-01-05 13:41:00,52.6,35.4,30.33,North,0,0.0,0.0,52,0.00,,,0.00,WUHU216HW,2013-01-05 18:41:00,
2013-01-05 13:46:00,52.6,35.4,30.33,North,0,0.0,0.0,52,0.00,,,0.00,WUHU216HW,2013-01-05 18:46:00,
2013-01-05 13:51:00,52.7,36.0,30.32,North,0,0.0,0.0,53,0.00,,,0.00,WUHU216HW,2013-01-05 18:51:00,
2013-01-05 13:56:00,53.3,36.6,30.32,North,0,0.0,0.0,53,0.00,,,0.00,WUHU216HW,2013-01-05 18:56:00,
2013-01-05 14:02:00,53.5,36.7,30.32,North,0,0.0,0.0,53,0.00,,,0.00,WUHU216HW,2013-01-05 19:02:00,
2013-01-05 14:07:00,53.3,36.6,30.32,North,0,0.0,0.0,53,0.00,,,0.00,WUHU216HW,2013-01-05 19:07:00,
2013-01-05 14:12:00,53.5,36.7,30.32,North,0,0.0,0.0,53,0.00,,,0.00,WUHU216HW,2013-01-05 19:12:00,
2013-01-05 14:17:00,53.5,36.7,30.32,North,0,0.0,0.0,53,0.00,,,0.00,WUHU216HW,2013-01-05 19:17:00,
2013-01-05 14:22:00,53.3,36.6,30.32,North,0,0.0,0.0,53,0.00,,,0.00,WUHU216HW,2013-01-05 19:22:00,
2013-01-05 14:27:00,53.6,36.9,30.32,North,0,0.0,0.0,53,0.00,,,0.00,WUHU216HW,2013-01-05 19:27:00,
2013-01-05 14:32:00,53.8,37.0,30.31,North,0,0.0,0.0,53,0.00,,,0.00,WUHU216HW,2013-01-05 19:32:00,
2013-01-05 14:37:00,54.4,37.5,30.32,North,0,0.0,0.0,53,0.00,,,0.00,WUHU216HW,2013-01-05 19:37:00,
2013-01-05 14:42:00,54.4,37.1,30.31,North,0,0.0,0.0,52,0.00,,,0.00,WUHU216HW,2013-01-05 19:42:00,
2013-01-05 14:47:00,54.0,35.8,30.32,North,0,0.0,0.0,50,0.00,,,0.00,WUHU216HW,2013-01-05 19:47:00,
2013-01-05 14:52:00,53.6,36.4,30.31,North,0,0.0,0.0,52,0.00,,,0.00,WUHU216HW,2013-01-05 19:52:00,
2013-01-05 14:57:00,54.0,35.2,30.32,North,0,0.0,0.0,49,0.00,,,0.00,WUHU216HW,2013-01-05 19:57:00,
2013-01-05 15:02:00,54.0,34.7,30.32,North,0,0.0,0.0,48,0.00,,,0.00,WUHU216HW,2013-01-05 20:02:00,
2013-01-05 15:07:00,53.6,36.4,30.31,North,0,0.0,0.0,52,0.00,,,0.00,WUHU216HW,2013-01-05 20:07:00,
2013-01-05 15:12:00,53.5,36.3,30.31,North,0,0.0,0.0,52,0.00,,,0.00,WUHU216HW,2013-01-05 20:12:00,
2013-01-05 15:18:00,53.6,36.9,30.32,North,0,0.0,0.0,53,0.00,,,0.00,WUHU216HW,2013-01-05 20:18:00,
2013-01-05 15:23:00,54.0,36.7,30.32,North,0,0.0,0.0,52,0.00,,,0.00,WUHU216HW,2013-01-05 20:23:00,
2013-01-05 15:28:00,54.4,34.5,30.32,North,0,0.0,0.0,47,0.00,,,0.00,WUHU216HW,2013-01-05 20:28:00,
2013-01-05 15:33:00,53.6,34.9,30.32,North,0,0.0,0.0,49,0.00,,,0.00,WUHU216HW,2013-01-05 20:33:00,
2013-01-05 15:38:00,53.3,35.7,30.32,North,0,0.0,0.0,51,0.00,,,0.00,WUHU216HW,2013-01-05 20:38:00,
2013-01-05 15:43:00,52.9,34.8,30.32,North,0,0.0,0.0,50,0.00,,,0.00,WUHU216HW,2013-01-05 20:43:00,
2013-01-05 15:48:00,53.5,35.7,30.32,North,0,0.0,0.0,51,0.00,,,0.00,WUHU216HW,2013-01-05 20:48:00,
2013-01-05 15:53:00,53.3,35.7,30.32,North,0,0.0,0.0,51,0.00,,,0.00,WUHU216HW,2013-01-05 20:53:00,
2013-01-05 15:58:00,53.6,36.4,30.32,North,0,0.0,0.0,52,0.00,,,0.00,WUHU216HW,2013-01-05 20:58:00,
2013-01-05 16:04:00,53.6,36.4,30.32,North,0,0.0,0.0,52,0.00,,,0.00,WUHU216HW,2013-01-05 21:04:00,
2013-01-05 16:09:00,53.5,36.3,30.33,North,0,0.0,0.0,52,0.00,,,0.00,WUHU216HW,2013-01-05 21:09:00,
2013-01-05 16:14:00,53.5,36.3,30.33,North,0,0.0,0.0,52,0.00,,,0.00,WUHU216HW,2013-01-05 21:14:00,
2013-01-05 16:19:00,53.3,36.1,30.32,North,0,0.0,0.0,52,0.00,,,0.00,WUHU216HW,2013-01-05 21:19:00,
2013-01-05 16:24:00,53.3,36.1,30.32,North,0,0.0,0.0,52,0.00,,,0.00,WUHU216HW,2013-01-05 21:24:00,
2013-01-05 16:29:00,52.9,36.2,30.33,North,0,0.0,0.0,53,0.00,,,0.00,WUHU216HW,2013-01-05 21:29:00,
2013-01-05 16:34:00,52.6,35.8,30.33,North,0,0.0,0.0,53,0.00,,,0.00,WUHU216HW,2013-01-05 21:34:00,
2013-01-05 16:39:00,51.7,35.0,30.34,North,0,0.0,0.0,53,0.00,,,0.00,WUHU216HW,2013-01-05 21:39:00,
2013-01-05 16:44:00,50.9,34.8,30.34,North,0,0.0,0.0,54,0.00,,,0.00,WUHU216HW,2013-01-05 21:44:00,
2013-01-05 16:49:00,50.2,34.2,30.34,North,0,0.0,0.0,54,0.00,,,0.00,WUHU216HW,2013-01-05 21:49:00,
2013-01-05 16:54:00,49.7,34.1,30.34,North,0,0.0,0.0,55,0.00,,,0.00,WUHU216HW,2013-01-05 21:54:00,
2013-01-05 17:00:00,49.0,33.9,30.34,North,0,0.0,0.0,56,0.00,,,0.00,WUHU216HW,2013-01-05 22:00:00,
2013-01-05 17:05:00,48.6,33.6,30.34,North,0,0.0,0.0,56,0.00,,,0.00,WUHU216HW,2013-01-05 22:05:00,
2013-01-05 17:10:00,48.2,33.7,30.34,North,0,0.0,0.0,57,0.00,,,0.00,WUHU216HW,2013-01-05 22:10:00,
2013-01-05 17:15:00,47.9,33.9,30.34,North,0,0.0,0.0,58,0.00,,,0.00,WUHU216HW,2013-01-05 22:15:00,
2013-01-05 17:20:00,47.3,33.3,30.34,North,0,0.0,0.0,58,0.00,,,0.00,WUHU216HW,2013-01-05 22:20:00,
2013-01-05 17:25:00,47.0,33.0,30.34,North,0,0.0,0.0,58,0.00,,,0.00,WUHU216HW,2013-01-05 22:25:00,
2013-01-05 17:30:00,46.6,32.6,30.34,North,0,0.0,0.0,58,0.00,,,0.00,WUHU216HW,2013-01-05 22:30:00,
2013-01-05 17:35:00,46.3,33.1,30.34,North,0,0.0,0.0,60,0.00,,,0.00,WUHU216HW,2013-01-05 22:35:00,
2013-01-05 17:41:00,45.9,32.9,30.34,North,0,0.0,0.0,60,0.00,,,0.00,WUHU216HW,2013-01-05 22:41:00,
2013-01-05 17:46:00,45.5,32.9,30.34,North,0,0.0,0.0,61,0.00,,,0.00,WUHU216HW,2013-01-05 22:46:00,
2013-01-05 17:51:00,45.2,33.0,30.35,North,0,0.0,0.0,62,0.00,,,0.00,WUHU216HW,2013-01-05 22:51:00,
2013-01-05 17:56:00,45.0,32.8,30.34,North,0,0.0,0.0,62,0.00,,,0.00,WUHU216HW,2013-01-05 22:56:00,
2013-01-05 18:01:00,44.6,32.4,30.34,North,0,0.0,0.0,62,0.00,,,0.00,WUHU216HW,2013-01-05 23:01:00,
2013-01-05 18:06:00,44.3,32.5,30.34,North,0,0.0,0.0,63,0.00,,,0.00,WUHU216HW,2013-01-05 23:06:00,
2013-01-05 18:11:00,44.1,32.3,30.33,North,0,0.0,0.0,63,0.00,,,0.00,WUHU216HW,2013-01-05 23:11:00,
2013-01-05 18:16:00,43.9,32.1,30.34,North,0,0.0,0.0,63,0.00,,,0.00,WUHU216HW,2013-01-05 23:16:00,
2013-01-05 18:21:00,43.7,32.3,30.34,North,0,0.0,0.0,64,0.00,,,0.00,WUHU216HW,2013-01-05 23:21:00,
2013-01-05 18:26:00,43.7,32.8,30.34,North,0,0.0,0.0,65,0.00,,,0.00,WUHU216HW,2013-01-05 23:26:00,
2013-01-05 18:31:00,43.7,32.8,30.34,North,0,0.0,0.0,65,0.00,,,0.00,WUHU216HW,2013-01-05 23:31:00,
2013-01-05 18:36:00,43.6,33.0,30.35,North,0,0.0,0.0,66,0.00,,,0.00,WUHU216HW,2013-01-05 23:36:00,
2013-01-05 18:42:00,43.4,32.8,30.34,North,0,0.0,0.0,66,0.00,,,0.00,WUHU216HW,2013-01-05 23:42:00,
2013-01-05 18:47:00,43.2,32.6,30.34,North,0,0.0,0.0,66,0.00,,,0.00,WUHU216HW,2013-01-05 23:47:00,
2013-01-05 18:52:00,43.4,33.1,30.34,North,0,0.0,0.0,67,0.00,,,0.00,WUHU216HW,2013-01-05 23:52:00,
2013-01-05 18:57:00,43.4,33.1,30.34,North,0,0.0,0.0,67,0.00,,,0.00,WUHU216HW,2013-01-05 23:57:00,
2013-01-05 19:02:00,43.4,33.1,30.34,North,0,0.0,0.0,67,0.00,,,0.00,WUHU216HW,2013-01-06 00:02:00,
2013-01-05 19:07:00,43.4,33.1,30.34,North,0,0.0,0.0,67,0.00,,,0.00,WUHU216HW,2013-01-06 00:07:00,
2013-01-05 19:12:00,43.2,33.0,30.34,North,0,0.0,0.0,67,0.00,,,0.00,WUHU216HW,2013-01-06 00:12:00,
2013-01-05 19:17:00,43.2,33.0,30.34,North,0,0.0,0.0,67,0.00,,,0.00,WUHU216HW,2013-01-06 00:17:00,
2013-01-05 19:23:00,43.2,33.0,30.34,North,0,0.0,0.0,67,0.00,,,0.00,WUHU216HW,2013-01-06 00:23:00,
2013-01-05 19:28:00,43.0,33.2,30.34,North,0,0.0,0.0,68,0.00,,,0.00,WUHU216HW,2013-01-06 00:28:00,
2013-01-05 19:33:00,42.8,33.0,30.34,North,0,0.0,0.0,68,0.00,,,0.00,WUHU216HW,2013-01-06 00:33:00,
2013-01-05 19:38:00,42.7,33.3,30.34,North,0,0.0,0.0,69,0.00,,,0.00,WUHU216HW,2013-01-06 00:38:00,
2013-01-05 19:43:00,42.5,33.1,30.33,North,0,0.0,0.0,69,0.00,,,0.00,WUHU216HW,2013-01-06 00:43:00,
2013-01-05 19:48:00,42.7,33.7,30.33,North,0,0.0,0.0,70,0.00,,,0.00,WUHU216HW,2013-01-06 00:48:00,
2013-01-05 19:53:00,42.8,33.8,30.33,North,0,0.0,0.0,70,0.00,,,0.00,WUHU216HW,2013-01-06 00:53:00,
2013-01-05 19:58:00,42.7,34.0,30.34,North,0,0.0,0.0,71,0.00,,,0.00,WUHU216HW,2013-01-06 00:58:00,
2013-01-05 20:03:00,42.1,33.5,30.34,North,0,0.0,0.0,71,0.00,,,0.00,WUHU216HW,2013-01-06 01:03:00,
2013-01-05 20:09:00,42.1,33.8,30.34,North,0,0.0,0.0,72,0.00,,,0.00,WUHU216HW,2013-01-06 01:09:00,
2013-01-05 20:14:00,42.5,34.5,30.33,North,0,0.0,0.0,73,0.00,,,0.00,WUHU216HW,2013-01-06 01:14:00,
2013-01-05 20:19:00,42.7,34.9,30.34,North,0,0.0,0.0,74,0.00,,,0.00,WUHU216HW,2013-01-06 01:19:00,
2013-01-05 20:24:00,42.5,35.5,30.34,North,0,0.0,0.0,76,0.00,,,0.00,WUHU216HW,2013-01-06 01:24:00,
2013-01-05 20:29:00,42.1,35.1,30.34,North,0,0.0,0.0,76,0.00,,,0.00,WUHU216HW,2013-01-06 01:29:00,
2013-01-05 20:34:00,41.9,34.6,30.33,North,0,0.0,0.0,75,0.00,,,0.00,WUHU216HW,2013-01-06 01:34:00,
2013-01-05 20:39:00,41.8,35.0,30.33,North,0,0.0,0.0,77,0.00,,,0.00,WUHU216HW,2013-01-06 01:39:00,
2013-01-05 20:44:00,41.8,35.0,30.32,North,0,0.0,0.0,77,0.00,,,0.00,WUHU216HW,2013-01-06 01:44:00,
2013-01-05 20:49:00,41.9,35.2,30.32,North,0,0.0,0.0,77,0.00,,,0.00,WUHU216HW,2013-01-06 01:49:00,
2013-01-05 20:54:00,41.9,35.2,30.33,North,0,0.0,0.0,77,0.00,,,0.00,WUHU216HW,2013-01-06 01:54:00,
2013-01-05 20:59:00,41.8,35.0,30.33,North,0,0.0,0.0,77,0.00,,,0.00,WUHU216HW,2013-01-06 01:59:00,
2013-01-05 21:04:00,42.1,35.4,30.33,North,0,0.0,0.0,77,0.00,,,0.00,WUHU216HW,2013-01-06 02:04:00,
2013-01-05 21:09:00,42.5,35.7,30.32,North,0,0.0,0.0,77,0.00,,,0.00,WUHU216HW,2013-01-06 02:09:00,
2013-01-05 21:14:00,42.7,35.9,30.33,North,0,0.0,0.0,77,0.00,,,0.00,WUHU216HW,2013-01-06 02:14:00,
2013-01-05 21:19:00,42.7,35.9,30.32,North,0,0.0,0.0,77,0.00,,,0.00,WUHU216HW,2013-01-06 02:19:00,
2013-01-05 21:25:00,42.5,35.7,30.32,North,0,0.0,0.0,77,0.00,,,0.00,WUHU216HW,2013-01-06 02:25:00,
2013-01-05 21:30:00,42.5,35.7,30.32,North,0,0.0,0.0,77,0.00,,,0.00,WUHU216HW,2013-01-06 02:30:00,
2013-01-05 21:35:00,42.7,35.9,30.32,North,0,0.0,0.0,77,0.00,,,0.00,WUHU216HW,2013-01-06 02:35:00,
2013-01-05 21:40:00,42.7,35.9,30.32,North,0,0.0,0.0,77,0.00,,,0.00,WUHU216HW,2013-01-06 02:40:00,
2013-01-05 21:45:00,42.7,35.9,30.32,North,0,0.0,0.0,77,0.00,,,0.00,WUHU216HW,2013-01-06 02:45:00,
2013-01-05 21:50:00,42.5,35.7,30.32,North,0,0.0,0.0,77,0.00,,,0.00,WUHU216HW,2013-01-06 02:50:00,
2013-01-05 21:55:00,42.7,35.9,30.31,North,0,0.0,0.0,77,0.00,,,0.00,WUHU216HW,2013-01-06 02:55:00,
2013-01-05 22:00:00,43.0,36.3,30.31,North,0,0.0,0.0,77,0.00,,,0.00,WUHU216HW,2013-01-06 03:00:00,
2013-01-05 22:05:00,42.8,36.1,30.32,North,0,0.0,0.0,77,0.00,,,0.00,WUHU216HW,2013-01-06 03:05:00,
2013-01-05 22:10:00,42.8,36.1,30.31,North,0,0.0,0.0,77,0.00,,,0.00,WUHU216HW,2013-01-06 03:10:00,
2013-01-05 22:15:00,42.8,36.1,30.31,North,0,0.0,0.0,77,0.00,,,0.00,WUHU216HW,2013-01-06 03:15:00,
2013-01-05 22:20:00,43.0,36.3,30.31,North,0,0.0,0.0,77,0.00,,,0.00,WUHU216HW,2013-01-06 03:20:00,
2013-01-05 22:25:00,42.8,36.1,30.31,North,0,0.0,0.0,77,0.00,,,0.00,WUHU216HW,2013-01-06 03:25:00,
2013-01-05 22:30:00,42.8,36.1,30.31,North,0,0.0,0.0,77,0.00,,,0.00,WUHU216HW,2013-01-06 03:30:00,
2013-01-05 22:35:00,42.7,36.3,30.31,North,0,0.0,0.0,78,0.00,,,0.00,WUHU216HW,2013-01-06 03:35:00,
2013-01-05 22:40:00,42.5,36.1,30.31,North,0,0.0,0.0,78,0.00,,,0.00,WUHU216HW,2013-01-06 03:40:00,
2013-01-05 22:45:00,42.5,36.1,30.31,North,0,0.0,0.0,78,0.00,,,0.00,WUHU216HW,2013-01-06 03:45:00,
2013-01-05 22:50:00,42.7,36.5,30.31,North,0,0.0,0.0,79,0.00,,,0.00,WUHU216HW,2013-01-06 03:50:00,
2013-01-05 22:55:00,42.5,36.4,30.31,North,0,0.0,0.0,79,0.00,,,0.00,WUHU216HW,2013-01-06 03:55:00,
2013-01-05 23:00:00,42.5,36.4,30.29,North,0,0.0,0.0,79,0.00,,,0.00,WUHU216HW,2013-01-06 04:00:00,
2013-01-05 23:05:00,42.5,36.4,30.29,North,0,0.0,0.0,79,0.00,,,0.00,WUHU216HW,2013-01-06 04:05:00,
2013-01-05 23:10:00,42.5,36.4,30.30,North,0,0.0,0.0,79,0.00,,,0.00,WUHU216HW,2013-01-06 04:10:00,
2013-01-05 23:15:00,42.5,36.4,30.31,North,0,0.0,0.0,79,0.00,,,0.00,WUHU216HW,2013-01-06 04:15:00,
2013-01-05 23:20:00,42.7,36.5,30.30,North,0,0.0,0.0,79,0.00,,,0.00,WUHU216HW,2013-01-06 04:20:00,
2013-01-05 23:25:00,42.8,36.7,30.30,North,0,0.0,0.0,79,0.00,,,0.00,WUHU216HW,2013-01-06 04:25:00,
2013-01-05 23:30:00,43.0,36.9,30.30,North,0,0.0,0.0,79,0.00,,,0.00,WUHU216HW,2013-01-06 04:30:00,
2013-01-05 23:35:00,43.2,37.1,30.30,North,0,0.0,0.0,79,0.00,,,0.00,WUHU216HW,2013-01-06 04:35:00,
2013-01-05 23:40:00,43.4,37.0,30.31,North,0,0.0,0.0,78,0.00,,,0.00,WUHU216HW,2013-01-06 04:40:00,
2013-01-05 23:45:00,43.0,36.6,30.30,North,0,0.0,0.0,78,0.00,,,0.00,WUHU216HW,2013-01-06 04:45:00,
2013-01-05 23:50:00,43.2,37.1,30.30,North,0,0.0,0.0,79,0.00,,,0.00,WUHU216HW,2013-01-06 04:50:00,
2013-01-05 23:55:00,43.0,36.9,30.30,North,0,0.0,0.0,79,0.00,,,0.00,WUHU216HW,2013-01-06 04:55:00,